User: anonymous   Login
Location: Balaclava NSW 2575, Australia
(34.4510°S, 150.4953°E)
Time: 19:05:52
(UTC+10:00)
Language:

Transit 2A - Orbit

View from above orbital plane
View from above orbital plane
View from above satellite
View from above satellite

Ground track
Ground track

The orbit data is extracted from the following two-line orbital elements,

1 00045U 60007A   21165.70755020 -.00000061  00000-0  11566-4 0  9994
2 00045  66.6931 146.2539 0249373  50.8054 311.4905 14.33721712117768
Epoch (UTC): 14 June 2021 16:58:52
Eccentricity: 0.0249373
inclination: 66.6931°
perigee height: 601 km
apogee height: 958 km
right ascension of ascending node: 146.2539°
argument of perigee: 50.8054°
revolutions per day: 14.33721712
mean anomaly at epoch: 311.4905°
orbit number at epoch: 11776

The dashed part of the orbit path shows where the satellite is in the earth's shadow,  

DLR